ATLAS 5 CENTAUR DEB, 43961

Orbit data source: Space-Track

ATLAS 5 CENTAUR DEB, 43961 is space debris in HEO originally from a launch on Wed, 17 Sep 2014 UTC launched from the Air Force Eastern Test Range (AFETR). Debris objects in space refer to the collection of defunct objects orbiting the Earth. Examples of debris include non-operational satellites, rocket bodies, and fragments generated from explosions, collisions, or faulty payload assembly.

Loading next visibility...
ATLAS 5 CENTAUR DEB details
Identifier
43961, 2014-055Q
Orbit
HEO
Last TLE update1 day ago
Origin
Flag of USULA (US)
ManufacturerUnknown
MissionSpacecraft
Bus & MotorUnknown
MassUnknown
Launch date (UTC)
2014-09-17 (10 years ago)
Launch vehicleUnknown
Launch site
Air Force Eastern Test Range (AFETR)
Object type
Payload
Rocket body
Debris
Shape & HBRUnknown
Radar Cross SectionSmall (<0.1 m²)

Expand to show TLE details & history

TLE from 1 day ago
0 ATLAS 5 CENTAUR DEB
1 43961U 14055Q   24339.36586906  .00000006  00000-0  00000-0 0  9998
2 43961  19.6349 198.4634 4925248  69.4673 335.6873  1.85334106 42317
Epoch: 2024-12-04T08:46Z
Definitive object data (Epoch: 2024-12-04T08:46:51.086Z)
Latitude-0.00008°
Longitude-6.83503°
Altitude11,663.224 km
Speed5.473 km/s
True Right ascension13h 14m 09s
True Declination0° 00' 00"
Sunlit
Object was in daylight at TLE epoch
Visualization TLE readout
Latitude-11.64709°
Longitude-42.19468°
Altitude18,238.779 km
Speed4.26 km/s
Apparent Right ascension11h 31m 34s
Apparent Declination-23° 14' 13"
Sunlit
Object is in daylight
Visualization observer readout
Local Sidereal Time07:47:00
Azimuth129.594° SE
Elevation8.019°
Doppler factor1
Orbital elements
Apogee altitude35,409.792 km
Perigee altitude7,830.228 km
Semi-major axis27,998.147 km
Eccentricity0.4925248
Inclination19.6349°
RAAN198.4634°
Arg. of periapsis69.4673°
True anomaly290.74099°
Mean anomaly335.6873°
Eccentric anomaly316.13067°
Mean motion0.46329 °/min
BSTARUnknown
Orbital period777.06 mins
Loading maneuver chart data...

ATLAS 5 CENTAUR DEB Visibility forecast

Observer location: undefined°, undefined

Span
Click to sort rows by Start time (UTC) header in descending order
Start Az.
Max El. time (UTC)
Max El. Az.
Max El.
End time (UTC)
End Az.
549 mins2024-12-06 00:39:43.298Z265.196° W2024-12-06 01:26:43.298Z198.292° SSW36.259°2024-12-06 09:48:43.298Z174.27° S
|